Location: Härggis
(46.9540°N, 8.4897°E)
Time: 21:21:35
(UTC+00:00)

Resurs 1-4 Rocket - Pass Details

Date: 27 May 2022
Orbit: 800 x 813 km, 98.7° (Epoch: 02 July)

Event Time Altitude Azimuth Distance (km) Brightness Sun altitude
Rises 00:56:36 0° 16° (NNE) 3,322 6.9 -18.6°
Reaches altitude 10° 00:58:57 10° 19° (NNE) 2,389 5.8 -18.4°
Maximum altitude 01:04:13 69° 103° (ESE) 860 2.2 -18.1°
Enters shadow 01:07:02 28° 180° (S) 1,468 2.9 -17.9°
